DLH9LY EDDL-EDDF

Flight info

Callsign DLH9LY
Flight time 0h 32m
Altitude 23000
Route COL6T/23L COL T911 ROLIS ROLIS5A
Aircraft A20N/M-SDE2E3FGHIRWXY/LB1

Departure

Time 2026-05-04 17:26
Airport Düsseldorf Airport (EDDL)

Arrival

Time 2026-05-04 17:58
Airport Frankfurt Main Airport (EDDF)
Time Latitude Longitude Altitude Speed Heading
2026-05-04 17:05 51.27887 6.76328 137 ft 0 kts 50°
2026-05-04 17:11 51.27875 6.76305 137 ft 3 kts 50°
2026-05-04 17:12 51.27862 6.76282 137 ft 3 kts 35°
2026-05-04 17:12 51.27838 6.76280 137 ft 2 kts 294°
2026-05-04 17:13 51.27841 6.76321 137 ft 0 kts 268°
2026-05-04 17:15 51.27841 6.76281 137 ft 7 kts 269°
2026-05-04 17:16 51.27865 6.76050 137 ft 11 kts 338°
2026-05-04 17:16 51.28087 6.76034 137 ft 8 kts 338°
2026-05-04 17:17 51.28137 6.76043 136 ft 9 kts 35°
2026-05-04 17:17 51.28347 6.76483 136 ft 22 kts 46°
2026-05-04 17:18 51.28443 6.76682 136 ft 22 kts 51°
2026-05-04 17:18 51.28622 6.77050 137 ft 19 kts 53°
2026-05-04 17:19 51.28772 6.77370 136 ft 17 kts 52°
2026-05-04 17:19 51.28908 6.77652 136 ft 15 kts 54°
2026-05-04 17:20 51.29024 6.77901 137 ft 13 kts 52°
2026-05-04 17:20 51.29131 6.78123 137 ft 12 kts 52°
2026-05-04 17:20 51.29190 6.78246 137 ft 18 kts 52°
2026-05-04 17:21 51.29377 6.78570 137 ft 7 kts 11°
2026-05-04 17:21 51.29433 6.78568 138 ft 1 kts 355°
2026-05-04 17:22 51.29435 6.78568 138 ft 0 kts 355°
2026-05-04 17:23 51.29436 6.78568 138 ft 1 kts 355°
2026-05-04 17:24 51.29467 6.78564 139 ft 8 kts 355°
2026-05-04 17:24 51.29476 6.78373 141 ft 1 kts 233°
2026-05-04 17:25 51.29468 6.78356 141 ft 4 kts 233°
2026-05-04 17:25 51.28988 6.77353 132 ft 114 kts 233°
2026-05-04 17:26 51.27849 6.74934 786 ft 139 kts 231°
2026-05-04 17:26 51.26078 6.71106 2193 ft 155 kts 230°
2026-05-04 17:27 51.24632 6.68057 3020 ft 194 kts 231°
2026-05-04 17:27 51.22678 6.64427 4060 ft 239 kts 213°
2026-05-04 17:28 51.19277 6.63550 5793 ft 261 kts 174°
2026-05-04 17:29 51.14080 6.66169 8604 ft 276 kts 137°
2026-05-04 17:29 51.12979 6.75051 8977 ft 293 kts 86°
2026-05-04 17:30 51.13602 6.84713 8973 ft 290 kts 89°
2026-05-04 17:31 51.13864 6.91090 8971 ft 290 kts 89°
2026-05-04 17:31 51.14211 7.00748 10043 ft 293 kts 89°
2026-05-04 17:32 51.14418 7.07548 11222 ft 331 kts 92°
2026-05-04 17:34 51.07619 7.31060 16644 ft 358 kts 151°
2026-05-04 17:34 51.05481 7.33129 17382 ft 362 kts 151°
2026-05-04 17:35 50.98921 7.39496 18903 ft 374 kts 151°
2026-05-04 17:35 50.94439 7.43857 19670 ft 380 kts 151°
2026-05-04 17:35 50.92171 7.46060 19941 ft 381 kts 151°
2026-05-04 17:36 50.89922 7.48240 19994 ft 381 kts 151°
2026-05-04 17:36 50.87655 7.50436 19998 ft 381 kts 151°
2026-05-04 17:36 50.85408 7.52609 19998 ft 381 kts 151°
2026-05-04 17:36 50.83147 7.54795 20005 ft 382 kts 152°
2026-05-04 17:37 50.80834 7.57020 20009 ft 404 kts 152°
2026-05-04 17:37 50.78352 7.59296 19997 ft 423 kts 155°
2026-05-04 17:37 50.75599 7.61276 20004 ft 439 kts 160°
2026-05-04 17:37 50.72787 7.63137 20008 ft 442 kts 160°
2026-05-04 17:38 50.69960 7.65016 19993 ft 428 kts 160°
2026-05-04 17:38 50.67324 7.66773 19993 ft 405 kts 160°
2026-05-04 17:38 50.64785 7.68466 19962 ft 384 kts 160°
2026-05-04 17:38 50.62395 7.70054 19814 ft 369 kts 160°
2026-05-04 17:39 50.57737 7.73135 18906 ft 358 kts 160°
2026-05-04 17:39 50.55444 7.74648 18194 ft 353 kts 160°
2026-05-04 17:39 50.53189 7.76137 17530 ft 345 kts 160°
2026-05-04 17:40 50.51060 7.77545 17323 ft 325 kts 160°
2026-05-04 17:40 50.49027 7.78891 17022 ft 310 kts 160°
2026-05-04 17:40 50.47073 7.80178 16427 ft 306 kts 160°
2026-05-04 17:40 50.45115 7.81464 15807 ft 303 kts 160°
2026-05-04 17:41 50.43234 7.82978 15204 ft 303 kts 151°
2026-05-04 17:41 50.41550 7.84909 14616 ft 302 kts 144°
2026-05-04 17:41 50.39914 7.86969 14047 ft 299 kts 144°
2026-05-04 17:41 50.38285 7.89001 13412 ft 296 kts 144°
2026-05-04 17:42 50.36688 7.90987 12750 ft 295 kts 145°
2026-05-04 17:42 50.35083 7.92976 12177 ft 292 kts 145°
2026-05-04 17:42 50.33486 7.94954 11626 ft 289 kts 145°
2026-05-04 17:42 50.31931 7.96872 11153 ft 287 kts 145°
2026-05-04 17:43 50.30375 7.98792 10812 ft 285 kts 145°
2026-05-04 17:43 50.29001 8.01005 10525 ft 287 kts 125°
2026-05-04 17:43 50.28328 8.04004 10281 ft 299 kts 102°
2026-05-04 17:43 50.28164 8.07236 10053 ft 299 kts 96°
2026-05-04 17:44 50.28110 8.10487 9988 ft 298 kts 95°
2026-05-04 17:44 50.28043 8.13782 9977 ft 299 kts 96°
2026-05-04 17:44 50.27942 8.16958 9972 ft 298 kts 97°
2026-05-04 17:44 50.27811 8.20210 9973 ft 298 kts 97°
2026-05-04 17:45 50.27663 8.23452 9968 ft 298 kts 98°
2026-05-04 17:45 50.27507 8.26670 9965 ft 298 kts 98°
2026-05-04 17:45 50.27348 8.29912 9965 ft 298 kts 98°
2026-05-04 17:45 50.27187 8.33162 9869 ft 298 kts 98°
2026-05-04 17:46 50.27028 8.36371 9723 ft 296 kts 98°
2026-05-04 17:46 50.26871 8.39536 9433 ft 294 kts 98°
2026-05-04 17:46 50.26714 8.42689 9136 ft 290 kts 98°
2026-05-04 17:46 50.26556 8.45851 9022 ft 293 kts 98°
2026-05-04 17:47 50.26394 8.49043 8881 ft 292 kts 98°
2026-05-04 17:47 50.26234 8.52199 8750 ft 291 kts 98°
2026-05-04 17:47 50.26075 8.55356 8620 ft 290 kts 98°
2026-05-04 17:47 50.25917 8.58446 8530 ft 284 kts 98°
2026-05-04 17:48 50.25761 8.61497 8297 ft 277 kts 98°
2026-05-04 17:48 50.25611 8.64429 8035 ft 264 kts 98°
2026-05-04 17:48 50.25466 8.67246 7785 ft 255 kts 98°
2026-05-04 17:48 50.25315 8.69957 7529 ft 251 kts 102°
2026-05-04 17:49 50.24715 8.72456 7223 ft 243 kts 123°
2026-05-04 17:49 50.23890 8.74715 6918 ft 241 kts 123°
2026-05-04 17:49 50.23053 8.76986 6601 ft 240 kts 123°
2026-05-04 17:49 50.22207 8.79257 6281 ft 240 kts 123°
2026-05-04 17:50 50.21368 8.81486 5952 ft 240 kts 123°
2026-05-04 17:50 50.20516 8.83734 5678 ft 241 kts 123°
2026-05-04 17:50 50.19654 8.85991 5407 ft 241 kts 123°
2026-05-04 17:50 50.18776 8.88168 5185 ft 237 kts 131°
2026-05-04 17:51 50.17583 8.89829 5110 ft 221 kts 144°
2026-05-04 17:51 50.16381 8.91183 4997 ft 211 kts 151°
2026-05-04 17:51 50.15045 8.91963 4955 ft 195 kts 176°
2026-05-04 17:51 50.13811 8.91563 4933 ft 181 kts 213°
2026-05-04 17:52 50.13090 8.90121 4921 ft 175 kts 249°
2026-05-04 17:52 50.12728 8.88220 4952 ft 181 kts 252°
2026-05-04 17:52 50.12361 8.86323 4932 ft 184 kts 250°
2026-05-04 17:52 50.12099 8.85070 4883 ft 182 kts 250°
2026-05-04 17:53 50.11571 8.82597 4645 ft 179 kts 248°
2026-05-04 17:53 50.11277 8.81392 4471 ft 179 kts 248°
2026-05-04 17:53 50.10834 8.79559 4191 ft 181 kts 249°
2026-05-04 17:53 50.10395 8.77705 3902 ft 182 kts 249°
2026-05-04 17:54 50.09954 8.75861 3603 ft 179 kts 249°
2026-05-04 17:54 50.09521 8.74065 3347 ft 176 kts 250°
2026-05-04 17:54 50.09092 8.72265 3089 ft 176 kts 250°
2026-05-04 17:54 50.08662 8.70476 2848 ft 179 kts 250°
2026-05-04 17:55 50.08230 8.68640 2605 ft 180 kts 251°
2026-05-04 17:55 50.07799 8.66819 2333 ft 182 kts 251°
2026-05-04 17:55 50.07357 8.64958 2053 ft 182 kts 250°
2026-05-04 17:55 50.06911 8.63161 1793 ft 173 kts 252°
2026-05-04 17:56 50.06516 8.61485 1573 ft 155 kts 253°
2026-05-04 17:56 50.06164 8.60001 1339 ft 142 kts 252°
2026-05-04 17:56 50.05830 8.58585 1110 ft 136 kts 253°
2026-05-04 17:56 50.05500 8.57216 938 ft 136 kts 252°
2026-05-04 17:57 50.05167 8.55828 756 ft 137 kts 252°
2026-05-04 17:57 50.04836 8.54436 562 ft 137 kts 252°
2026-05-04 17:57 50.04504 8.53052 374 ft 137 kts 253°
2026-05-04 17:57 50.04205 8.51793 331 ft 92 kts 249°
2026-05-04 17:58 50.04066 8.51220 326 ft 36 kts 248°
2026-05-04 17:58 50.03945 8.50969 323 ft 14 kts 221°
2026-05-04 17:58 50.03867 8.50865 320 ft 12 kts 218°
2026-05-04 17:58 50.03815 8.50833 325 ft 9 kts 176°
2026-05-04 17:59 50.03785 8.50870 325 ft 0 kts 124°
2026-05-04 17:59 50.03783 8.50876 322 ft 3 kts 123°
2026-05-04 17:59 50.03848 8.51196 328 ft 23 kts 68°
2026-05-04 18:00 50.03904 8.51438 329 ft 25 kts 71°
2026-05-04 18:00 50.03966 8.51698 332 ft 26 kts 69°
2026-05-04 18:00 50.04031 8.51964 333 ft 27 kts 68°
2026-05-04 18:00 50.04097 8.52245 350 ft 28 kts 69°
2026-05-04 18:01 50.04166 8.52532 344 ft 29 kts 69°